• En España
  • Lista de países
  • Para 7 días
  • Temperatura del agua
  • Mapa Satelital
  • El tiempo en el mapa
  • Informadores
  • user-avatar
    Iniciar sesión

    Tiempo cada hora Glazyrino

    Hoy, 21 Agosto, Martes

    Tiempo Temperatura Precipitaciones Viento Presión Humedad
    00:00 +17°C° 0,1 mm 2 mps 747 mmHg 94%
    01:00 +17°C° 0,1 mm 2 mps 747 mmHg 95%
    02:00 +16°C° 0,1 mm 2 mps 747 mmHg 95%
    03:00 +17°C° 0 mm 2 mps 746 mmHg 96%
    04:00 +17°C° 0,2 mm 2 mps 746 mmHg 96%
    05:00 +17°C° 0,2 mm 2 mps 747 mmHg 95%
    06:00 +17°C° 0,2 mm 2 mps 747 mmHg 95%
    07:00 +18°C° 0,2 mm 2 mps 746 mmHg 90%
    08:00 +20°C° 0,2 mm 3 mps 746 mmHg 86%
    09:00 +21°C° 0 mm 3 mps 746 mmHg 81%
    10:00 +22°C° 0,3 mm 3 mps 746 mmHg 77%
    11:00 +22°C° 0,3 mm 3 mps 746 mmHg 73%
    12:00 +23°C° 0,3 mm 4 mps 745 mmHg 69%
    13:00 +25°C° 0,2 mm 4 mps 745 mmHg 66%
    14:00 +26°C° 0,2 mm 4 mps 744 mmHg 64%
    15:00 +26°C° 0,2 mm 5 mps 744 mmHg 61%
    16:00 +25°C° 0,2 mm 4 mps 744 mmHg 65%
    17:00 +25°C° 0,2 mm 4 mps 743 mmHg 69%
    18:00 +23°C° 0,2 mm 4 mps 743 mmHg 73%
    19:00 +22°C° 0,1 mm 4 mps 742 mmHg 75%
    20:00 +21°C° 0,1 mm 4 mps 742 mmHg 77%
    21:00 +20°C° 0,1 mm 5 mps 741 mmHg 78%
    22:00 +20°C° 0,3 mm 5 mps 741 mmHg 80%
    23:00 +19°C° 0,3 mm 4 mps 741 mmHg 82%

    Mañana, 22 Agosto, Miércoles

    Tiempo Temperatura Precipitaciones Viento Presión Humedad
    00:00 +19°C° 0,3 mm 4 mps 740 mmHg 84%
    01:00 +19°C° 0,6 mm 4 mps 740 mmHg 86%
    02:00 +18°C° 0,6 mm 4 mps 740 mmHg 88%
    03:00 +18°C° 0,6 mm 4 mps 740 mmHg 91%
    04:00 +17°C° 1 mm 4 mps 740 mmHg 92%
    05:00 +17°C° 1 mm 4 mps 741 mmHg 93%
    06:00 +15°C° 1 mm 4 mps 741 mmHg 94%
    07:00 +15°C° 0,1 mm 4 mps 741 mmHg 89%
    08:00 +15°C° 0,1 mm 4 mps 741 mmHg 84%
    09:00 +15°C° 0,1 mm 4 mps 741 mmHg 80%
    10:00 +17°C° 0 mm 4 mps 742 mmHg 73%
    11:00 +17°C° 0 mm 5 mps 742 mmHg 67%
    12:00 +19°C° 0 mm 5 mps 742 mmHg 60%
    13:00 +19°C° 0 mm 5 mps 742 mmHg 59%
    14:00 +19°C° 0 mm 5 mps 743 mmHg 57%
    15:00 +20°C° 0 mm 6 mps 743 mmHg 55%
    16:00 +17°C° 0,1 mm 5 mps 743 mmHg 62%
    17:00 +16°C° 0,1 mm 5 mps 744 mmHg 68%
    18:00 +15°C° 0,1 mm 4 mps 744 mmHg 74%
    19:00 +14°C° 0 mm 4 mps 744 mmHg 77%
    20:00 +12°C° 0 mm 4 mps 745 mmHg 80%
    21:00 +11°C° 0 mm 4 mps 746 mmHg 83%
    22:00 +11°C° 0 mm 3 mps 746 mmHg 85%
    23:00 +10°C° 0 mm 3 mps 746 mmHg 86%

    Pasado mañana, 23 Agosto, Jueves

    Tiempo Temperatura Precipitaciones Viento Presión Humedad
    00:00 +10°C° 0 mm 3 mps 747 mmHg 88%
    01:00 +9°C° 0 mm 3 mps 747 mmHg 90%
    02:00 +9°C° 0 mm 3 mps 747 mmHg 92%
    03:00 +8°C° 0 mm 3 mps 748 mmHg 94%
    04:00 +8°C° 0 mm 4 mps 748 mmHg 92%
    05:00 +8°C° 0 mm 4 mps 749 mmHg 90%
    06:00 +8°C° 0 mm 4 mps 749 mmHg 87%
    07:00 +9°C° 0 mm 5 mps 749 mmHg 79%
    08:00 +11°C° 0 mm 6 mps 750 mmHg 70%
    09:00 +13°C° 0 mm 6 mps 750 mmHg 61%
    10:00 +14°C° 0 mm 6 mps 750 mmHg 58%
    11:00 +15°C° 0 mm 7 mps 750 mmHg 56%
    12:00 +16°C° 0 mm 7 mps 750 mmHg 53%
    13:00 +16°C° 0 mm 6 mps 750 mmHg 53%
    14:00 +16°C° 0 mm 6 mps 750 mmHg 53%
    15:00 +16°C° 0 mm 6 mps 750 mmHg 53%
    16:00 +16°C° 0 mm 5 mps 750 mmHg 57%
    17:00 +15°C° 0 mm 4 mps 751 mmHg 62%
    18:00 +14°C° 0 mm 3 mps 751 mmHg 66%
    19:00 +13°C° 0 mm 3 mps 751 mmHg 69%
    20:00 +12°C° 0 mm 3 mps 751 mmHg 72%
    21:00 +11°C° 0 mm 3 mps 751 mmHg 75%
    22:00 +11°C° 0 mm 3 mps 751 mmHg 75%
    23:00 +11°C° 0 mm 3 mps 751 mmHg 74%

    24 Agosto, Viernes

    Tiempo Temperatura Precipitaciones Viento Presión Humedad
    00:00 +11°C° 0 mm 3 mps 751 mmHg 74%
    01:00 +11°C° 0,1 mm 3 mps 751 mmHg 76%
    02:00 +11°C° 0,1 mm 3 mps 751 mmHg 78%
    03:00 +11°C° 0,1 mm 3 mps 751 mmHg 80%
    04:00 +12°C° 0,1 mm 4 mps 751 mmHg 80%
    05:00 +12°C° 0,1 mm 4 mps 751 mmHg 81%
    06:00 +12°C° 0,1 mm 5 mps 751 mmHg 81%
    07:00 +13°C° 0,3 mm 5 mps 751 mmHg 80%
    08:00 +14°C° 0,3 mm 5 mps 751 mmHg 78%
    09:00 +15°C° 0,3 mm 5 mps 751 mmHg 77%
    10:00 +16°C° 0,1 mm 5 mps 751 mmHg 74%
    11:00 +17°C° 0,1 mm 5 mps 751 mmHg 72%
    12:00 +19°C° 0,1 mm 5 mps 751 mmHg 70%
    13:00 +19°C° 0,1 mm 4 mps 751 mmHg 72%
    14:00 +19°C° 0,1 mm 4 mps 751 mmHg 73%
    15:00 +19°C° 0,1 mm 3 mps 751 mmHg 75%
    16:00 +19°C° 0 mm 2 mps 751 mmHg 77%
    17:00 +19°C° 0 mm 2 mps 751 mmHg 80%
    18:00 +19°C° 0 mm 1 mps 751 mmHg 82%
    19:00 +18°C° 0 mm 1 mps 751 mmHg 85%
    20:00 +16°C° 0 mm 1 mps 752 mmHg 88%
    21:00 +15°C° 0 mm 1 mps 752 mmHg 91%
    22:00 +15°C° 0 mm 1 mps 752 mmHg 92%
    23:00 +14°C° 0 mm 1 mps 752 mmHg 93%

    25 Agosto, Sábado

    Tiempo Temperatura Precipitaciones Viento Presión Humedad
    00:00 +13°C° 0 mm 0 mps 752 mmHg 93%
    01:00 +13°C° 0 mm 0 mps 753 mmHg 94%
    02:00 +13°C° 0 mm 1 mps 753 mmHg 94%
    03:00 +13°C° 0 mm 1 mps 753 mmHg 95%
    04:00 +14°C° 0 mm 1 mps 753 mmHg 95%
    05:00 +14°C° 0 mm 1 mps 754 mmHg 95%
    06:00 +14°C° 0 mm 1 mps 754 mmHg 95%
    07:00 +16°C° 0 mm 1 mps 754 mmHg 88%
    08:00 +19°C° 0 mm 1 mps 754 mmHg 82%
    09:00 +20°C° 0 mm 1 mps 755 mmHg 76%
    10:00 +22°C° 0 mm 1 mps 755 mmHg 71%
    11:00 +23°C° 0 mm 1 mps 755 mmHg 66%
    12:00 +24°C° 0 mm 1 mps 755 mmHg 61%
    13:00 +24°C° 0 mm 1 mps 755 mmHg 59%
    14:00 +22°C° 0 mm 0 mps 755 mmHg 58%
    15:00 +22°C° 0 mm 0 mps 755 mmHg 56%
    16:00 +23°C° 0 mm 1 mps 754 mmHg 61%
    17:00 +22°C° 0 mm 1 mps 754 mmHg 66%
    18:00 +21°C° 0 mm 1 mps 754 mmHg 71%
    19:00 +20°C° 0 mm 1 mps 755 mmHg 76%
    20:00 +19°C° 0 mm 1 mps 755 mmHg 80%
    21:00 +16°C° 0 mm 2 mps 755 mmHg 85%
    22:00 +16°C° 0 mm 2 mps 755 mmHg 87%
    23:00 +15°C° 0 mm 2 mps 755 mmHg 89%

    26 Agosto, Domingo

    Tiempo Temperatura Precipitaciones Viento Presión Humedad
    00:00 +15°C° 0 mm 2 mps 755 mmHg 90%
    01:00 +15°C° 0 mm 2 mps 756 mmHg 91%
    02:00 +15°C° 0 mm 2 mps 756 mmHg 92%
    03:00 +14°C° 0 mm 2 mps 756 mmHg 93%
    04:00 +15°C° 0 mm 2 mps 756 mmHg 93%
    05:00 +15°C° 0 mm 1 mps 756 mmHg 92%
    06:00 +16°C° 0 mm 1 mps 756 mmHg 92%
    07:00 +18°C° 0 mm 1 mps 757 mmHg 85%
    08:00 +20°C° 0 mm 1 mps 757 mmHg 79%
    09:00 +22°C° 0 mm 1 mps 757 mmHg 73%
    10:00 +23°C° 0 mm 1 mps 757 mmHg 68%
    11:00 +25°C° 0 mm 1 mps 756 mmHg 64%
    12:00 +26°C° 0 mm 1 mps 756 mmHg 60%
    13:00 +26°C° 0 mm 1 mps 756 mmHg 59%
    14:00 +26°C° 0 mm 1 mps 756 mmHg 58%
    15:00 +26°C° 0 mm 1 mps 756 mmHg 58%
    16:00 +25°C° 0 mm 1 mps 756 mmHg 62%
    17:00 +22°C° 0 mm 0 mps 755 mmHg 67%
    18:00 +21°C° 0 mm 0 mps 755 mmHg 71%
    19:00 +22°C° 0 mm 1 mps 755 mmHg 76%
    20:00 +21°C° 0 mm 1 mps 756 mmHg 80%
    21:00 +19°C° 0 mm 1 mps 756 mmHg 84%
    22:00 +19°C° 0 mm 1 mps 756 mmHg 86%
    23:00 +18°C° 0 mm 1 mps 756 mmHg 88%
    Mostrar más